Regional Weather Roundup
Issued by NWS San Diego, CA

Home | Current Version | Previous Version | Text Only | Print | Product List | Glossary On
Versions: 1 2 3 4 5 6 7 8 9 10 11 12 13 14 15 16 17 18 19 20 21 22 23 24 25 26 27 28 29 30 31 32 33 34 35 36 37 38 39 40 41 42 43 44 45 46 47 48 49 50
000
ASUS46 KSGX 252111
RWRSGX
SAN DIEGO HOURLY WEATHER ROUNDUP
NATIONAL WEATHER SERVICE SAN DIEGO CA
200 PM PDT TUE APR 25 2017

NOTE: "FAIR" INDICATES FEW OR NO CLOUDS BELOW 12,000 FEET WITH NO
SIGNIFICANT WEATHER AND/OR OBSTRUCTIONS TO VISIBILITY.

CAZ042-043-060-061-PZZ750-775-252200-

GREATER SAN DIEGO AREA

CITY           SKY/WX    TMP DP  RH WIND       PRES   REMARKS
SAN DIEGO AP   CLOUDY    67  55  65 W13       29.95S
NATIONAL CITY    N/A     66  58  75 NW1       29.93F
CHULA VISTA      N/A     66  58  75 W5        29.86S
IMPERIAL BEACH CLOUDY    66  55  67 W9        29.94F
BROWN FIELD    CLOUDY    66  54  65 W8        29.93S
MIRAMAR MCAS   CLOUDY    72  53  51 W16       29.92S
MONTGOMERY FLD CLOUDY    69  52  54 W13       29.92S

$$

NORTH SAN DIEGO COUNTY

CITY           SKY/WX    TMP DP  RH WIND       PRES   REMARKS
CAMP PENDLETON PTSUNNY   69  53  56 W9G16     29.91F
OCEANSIDE AP   PTSUNNY   70  54  56 SW13G21   29.91F
OCEANSIDE HBR    N/A     65  57  76 W7        29.94F
VISTA            N/A     67  53  62 W3        29.90S
CARLSBAD       PTSUNNY   67  54  63 VRB6      29.91F
DEL MAR          N/A     69  59  71 CALM      29.95S
LA JOLLA SCRIP   N/A     64  58  81 SW3       29.92F
FALLBROOK        N/A     69  56  62 W5        29.88F
ESCONDIDO        N/A     70  53  55 SW6       29.92F
SAN MARCOS       N/A     67  52  59 W12       29.93F
POWAY            N/A     69  54  57 CALM      29.93S

$$

EAST SAN DIEGO COUNTY

CITY           SKY/WX    TMP DP  RH WIND       PRES   REMARKS
RAMONA         PTSUNNY   66  52  60 W9        29.91F
SANTEE LAKES     N/A     69  56  61 SW5       29.90S
LA MESA          N/A     67  52  57 NW9       29.86S
JAMUL            N/A     67  54  62 CALM      29.91F
DESCANSO N       N/A     56  48  74 W7        29.86F
MT. LAGUNA OBS   N/A     50  42  72 W2        29.56S
CAMPO            N/A     63  47  55 W8        29.88S

$$

ORANGE COUNTY AND THE LOS ANGELES BASIN

CITY           SKY/WX    TMP DP  RH WIND       PRES   REMARKS
JOHN WAYNE AP  PTSUNNY   69  51  52 SW14      29.90F
LAGUNA BEACH     N/A     68  57  67 S2        29.86F
LAKE FOREST FR   N/A     68  49  50 SW1       29.79F
HUNTINGTON BCH   N/A     67  56  68 W16       29.90F
LOS ALAMITOS   PTSUNNY   72  46  39 SW20      29.87F
FULLERTON      CLOUDY    77  44  30 SW9       29.85F
LONG BEACH     CLOUDY    72  43  35 W15       29.87F
L.A. AP        PTSUNNY   68  50  52 W23       29.89F
L.A. DOWNTOWN  CLOUDY    74  44  34 VRB3      29.86F

$$

THE INLAND EMPIRE

CITY           SKY/WX    TMP DP  RH WIND       PRES   REMARKS
CORONA         CLOUDY    73  46  38 NW12      29.88F
CHINO          CLOUDY    74  44  34 W8        29.88F
ONTARIO        CLOUDY    71  46  40 W10       29.88F
SAN BERNARDINO CLOUDY    72  43  35 SW7       29.88  HAZE
RIVERSIDE AP   CLOUDY    71  47  42 W9G17     29.87F
MORENO VALLEY    N/A     71  51  48 N1        28.02F
MARCH ARB      MOSUNNY   70  42  36 NW9       29.87F
HORSETHIEF CYN   N/A     71  42  35 CALM      29.87F
PERRIS           N/A     71  48  45 W3        29.89F
HEMET EAST       N/A     66  43  44 W2        29.95S
FRENCH VALLEY  MOCLDY    68  50  52 S9G18     29.91F
TEMECULA         N/A     69  54  58 SW8       29.94F

$$

SAN BERNARDINO AND RIVERSIDE COUNTY MOUNTAINS

CITY           SKY/WX    TMP DP  RH WIND       PRES   REMARKS
BIG BEAR AP    PTSUNNY   52  30  43 W10       29.97S
ANGELUS OAKS     N/A     49  42  76 CALM      29.78F
PINE COVE        N/A     48  42  80 W2        29.88S

$$

SOUTHERN DESERT INCLUDING THE COACHELLA VALLEY

CITY           SKY/WX    TMP DP  RH WIND       PRES   REMARKS
PALM SPRINGS   CLOUDY    81  43  26 NW22G28   29.78F
PALM DESERT      N/A     82  44  26 N3        29.66F
THERMAL        CLOUDY    86  41  20 NW15G23   29.72F
BLYTHE         CLOUDY    86  30  13 NW13      29.73F
IMPERIAL AP    PTSUNNY   86  39  19 NW9       29.73F
EL CENTRO NAS  PTSUNNY   86  30  13 W10G21    29.75F
YUMA AZ        PTSUNNY   86  40  19 W15G23    29.73
MEXICALI       CLOUDY    84  34  16 W15       29.75

$$

UPPER DESERT

CITY           SKY/WX    TMP DP  RH WIND       PRES   REMARKS
VICTORVILLE AP PTSUNNY   64  32  29 W22       29.92S
HESPERIA         N/A     64  33  31 NW3       29.99F
PALMDALE       CLOUDY    65  35  33 W28G36    29.93F
LANCASTER      CLOUDY    65  36  34 W29       29.94F
EDWARDS AFB    CLOUDY    65  35  32 SW24G30   29.87S
DAGGETT        MOSUNNY   73  32  22 NW10      29.86F
29 PALMS N     MOSUNNY   76  27  16 N15G24    29.89F
NEEDLES        SUNNY     88  15   6 N21G35    29.70F

$$

REGIONAL REPORTS

CITY           SKY/WX    TMP DP  RH WIND       PRES   REMARKS
SANTA BARBARA  PTSUNNY   68  49  50 W21G28    29.91F
SANDBERG       PTSUNNY   53  38  56 N22G29    30.03S
LAS VEGAS NV   MOSUNNY   77  14   9 N23G30    29.77F
PHOENIX AZ     PTSUNNY   83  37  19 W13G24    29.69S
TIJUANA        CLOUDY    64  52  63 W10       29.96R
ENSENADA NW      N/A     65  32  28 W7        29.91S

$$

OFFSHORE ISLANDS

CITY           SKY/WX    TMP DP  RH WIND       PRES   REMARKS
CATALINA ARPT  CLOUDY    62  50  64 W15       29.95F
SAN CLEMENTE I PTSUNNY   64  49  57 NW20G29   29.96F
SAN NICOLAS IS PTSUNNY   59  49  69 NW37G51   29.95F

$$

MARINE AND OFFSHORE BUOY REPORTS

STATION/POSITION SKY/WX   TEMP    WIND        PRES    VSBY  SWELL
                          AIR SEA DIR/SP/G                  HT/PER/DIR
                          (F)     (DEG/KT/KT) (MB)    (MI)  (FT/S/D)
TANNER BANKS               57 57  310/ 29/ 35 1014.4F         7/330/ 9
S CLEMENTE BASIN           59 62  300/ 17/ 21 1013.7F         7/290/ 9
SAN NICOLAS IS.               56                N/A           5/290/11
SO. S. ROSA ISLA           55 54  300/ 25/ 33 1015.7F         7/290/12
W. S. BARBARA CH           54 52  320/ 23/ 27 1016.4F         8/310/10
M. S. BARBARA CH                  280/ 23/ 29 1013.8F
S. MONICA BASIN            59 61  270/  6/ 10 1013.1F         7/270/ 6
S PEDRO CHANNEL               60                N/A           2/240/13
CMP PENDLETON NS              64                N/A           3/210/15
OCEANSIDE OFFSHR              64                N/A           3/180/18
TORREY PINES OTR              64                N/A           3/250/12
POINT LOMA SOUTH              63                N/A           5/260/12

$$





USA.gov is the U.S. government's official web portal to all federal, state and local government web resources and services.